Location: Unspecified
(0.0000°N, 0.0000°E)
Time: 07:28:10
(UTC+00:00)

Tiangong - Pass Details

Date: 19 September 2021
Orbit: 381 x 386 km, 41.5° (Epoch: 18 September)

Event Time Altitude Azimuth Distance (km) Brightness Sun altitude
Exits shadow 04:27:00 46° 129° (SE) 517 1.9 -21.7°
Drops below altitude 10° 04:29:57 10° 61° (ENE) 1,392 4.8 -21.0°
Sets 04:32:03 0° 55° (NE) 2,243 5.9 -20.4°
